{"data":{"norad_id":64461,"intl_designator":"2025-130Z","name":"STARLINK-34418","alt_names":[],"object_type":"PAYLOAD","status":"ACTIVE","operator":null,"country":"US","launch_date":"2025-06-18","launch_site_code":"AFETR","launch_vehicle":null,"mission":null,"orbit_class":"UNKNOWN","rcs_meters":null,"size_class":null,"mass_kg":null,"dimensions":null,"purposes":["comms"],"wikipedia_slug":null,"has_3d_model":false,"image_url":null,"decayed_at":null,"tle_current":{"epoch":"2026-05-25T03:08:10.385664Z","epoch_age_seconds":63415,"freshness":"FRESH","line1":"1 64461U 25130Z   26145.13067576  .00019156  00000+0  65711-3 0  9999","line2":"2 64461  53.1588  93.6726 0001629  74.7419 285.3761 15.30206291 52408","mean_motion":15.30206291,"eccentricity":0.0001629,"inclination_deg":53.1588,"raan_deg":93.6726,"arg_perigee_deg":74.7419,"mean_anomaly_deg":285.3761,"bstar":0.00065711,"rev_number":5240,"period_min":94.104958819569,"perigee_km":474.0798776994,"apogee_km":476.31269368388,"semimajor_km":6853.3332856916,"source":"CELESTRAK","updated_at":"2026-05-25T13:38:20.453737Z"}}}